Вернуться в каталог

TJS-22

АктивенВоенныеGEO
NORAD 66990·PAYLOAD·🇨🇳 China

Запущен Dec 9, 2025 с Xichang Satellite Launch Center

Loading…

TLE

СвежийSource: Space-Track

Эпоха: Sep 14, 2026, 14:07 UTC

1 66990U 25290A   26257.58827440 -.00000015  00000-0  00000-0 0  9995
2 66990   1.3180 288.2282 0004099 324.2778  19.2970  1.00271913  2916

Отслеживайте TJS-22 в реальном времени с AllMySat

Download on the App Store